Time,TemperatureF,DewpointF,PressureIn,WindDirection,WindDirectionDegrees,WindSpeedMPH,WindSpeedGustMPH,Humidity,HourlyPrecipIn,Conditions,Clouds,dailyrainin,SoftwareType,DateUTC
2013-03-05 00:00:00,32.3,24.0,29.67,WNW,298,3.0,0.0,71,0.00,,,0.00,WeatherTracker,2013-03-05 05:00:00,
2013-03-05 00:05:00,32.2,24.2,29.67,SW,223,3.0,0.0,72,0.00,,,0.00,WeatherTracker,2013-03-05 05:05:00,
2013-03-05 00:10:00,32.2,23.9,29.67,West,269,3.0,0.0,71,0.00,,,0.00,WeatherTracker,2013-03-05 05:10:00,
2013-03-05 00:15:00,32.2,24.2,29.68,WSW,244,0.0,0.0,72,0.00,,,0.00,WeatherTracker,2013-03-05 05:15:00,
2013-03-05 00:21:00,32.2,24.2,29.68,South,186,3.0,0.0,72,0.00,,,0.00,WeatherTracker,2013-03-05 05:21:00,
2013-03-05 00:26:00,32.2,24.2,29.68,West,269,0.0,0.0,72,0.00,,,0.00,WeatherTracker,2013-03-05 05:26:00,
2013-03-05 00:31:00,32.2,23.9,29.68,NW,319,2.0,0.0,71,0.00,,,0.00,WeatherTracker,2013-03-05 05:31:00,
2013-03-05 00:36:00,32.2,23.9,29.68,NW,319,0.0,0.0,71,0.00,,,0.00,WeatherTracker,2013-03-05 05:36:00,
2013-03-05 00:41:00,32.2,23.9,29.68,West,267,0.0,0.0,71,0.00,,,0.00,WeatherTracker,2013-03-05 05:41:00,
2013-03-05 00:46:00,32.2,23.9,29.68,WNW,286,1.0,0.0,71,0.00,,,0.00,WeatherTracker,2013-03-05 05:46:00,
2013-03-05 00:51:00,32.2,23.9,29.69,ESE,103,1.0,0.0,71,0.00,,,0.00,WeatherTracker,2013-03-05 05:51:00,
2013-03-05 00:56:00,32.2,23.5,29.69,West,275,5.0,0.0,70,0.00,,,0.00,WeatherTracker,2013-03-05 05:56:00,
2013-03-05 01:01:00,32.2,23.5,29.69,WSW,237,0.0,0.0,70,0.00,,,0.00,WeatherTracker,2013-03-05 06:01:00,
2013-03-05 01:06:00,32.2,23.9,29.69,West,277,3.0,0.0,71,0.00,,,0.00,WeatherTracker,2013-03-05 06:06:00,
2013-03-05 01:11:00,32.2,23.5,29.70,West,271,1.0,0.0,70,0.00,,,0.00,WeatherTracker,2013-03-05 06:11:00,
2013-03-05 01:16:00,32.3,23.6,29.70,West,273,5.0,0.0,70,0.00,,,0.00,WeatherTracker,2013-03-05 06:16:00,
2013-03-05 01:21:00,32.3,23.6,29.70,West,269,0.0,0.0,70,0.00,,,0.00,WeatherTracker,2013-03-05 06:21:00,
2013-03-05 01:26:00,32.3,23.6,29.70,SW,229,0.0,0.0,70,0.00,,,0.00,WeatherTracker,2013-03-05 06:26:00,
2013-03-05 01:31:00,32.3,23.6,29.70,West,274,3.0,0.0,70,0.00,,,0.00,WeatherTracker,2013-03-05 06:31:00,
2013-03-05 01:36:00,32.3,23.6,29.70,WSW,252,4.0,0.0,70,0.00,,,0.00,WeatherTracker,2013-03-05 06:36:00,
2013-03-05 01:41:00,32.3,23.3,29.70,NW,314,1.0,0.0,69,0.00,,,0.00,WeatherTracker,2013-03-05 06:41:00,
2013-03-05 01:46:00,32.3,23.3,29.70,WSW,256,4.0,0.0,69,0.00,,,0.00,WeatherTracker,2013-03-05 06:46:00,
2013-03-05 01:51:00,32.3,23.3,29.70,West,272,0.0,0.0,69,0.00,,,0.00,WeatherTracker,2013-03-05 06:51:00,
2013-03-05 01:56:00,32.2,23.2,29.70,East,83,3.0,0.0,69,0.00,,,0.00,WeatherTracker,2013-03-05 06:56:00,
2013-03-05 02:01:00,32.2,23.2,29.71,WSW,253,1.0,0.0,69,0.00,,,0.00,WeatherTracker,2013-03-05 07:01:00,
2013-03-05 02:06:00,32.2,23.2,29.71,West,271,1.0,0.0,69,0.00,,,0.00,WeatherTracker,2013-03-05 07:06:00,
2013-03-05 02:11:00,32.2,23.2,29.71,West,270,2.0,0.0,69,0.00,,,0.00,WeatherTracker,2013-03-05 07:11:00,
2013-03-05 02:16:00,32.2,23.2,29.71,SW,219,0.0,0.0,69,0.00,,,0.00,WeatherTracker,2013-03-05 07:16:00,
2013-03-05 02:21:00,32.2,23.2,29.71,West,281,1.0,0.0,69,0.00,,,0.00,WeatherTracker,2013-03-05 07:21:00,
2013-03-05 02:26:00,32.2,23.5,29.71,WNW,284,4.0,0.0,70,0.00,,,0.00,WeatherTracker,2013-03-05 07:26:00,
2013-03-05 02:32:00,32.2,23.2,29.71,West,271,0.0,0.0,69,0.00,,,0.00,WeatherTracker,2013-03-05 07:32:00,
2013-03-05 02:37:00,32.2,23.5,29.72,West,275,1.0,0.0,70,0.00,,,0.00,WeatherTracker,2013-03-05 07:37:00,
2013-03-05 02:42:00,32.2,23.2,29.71,West,260,0.0,0.0,69,0.00,,,0.00,WeatherTracker,2013-03-05 07:42:00,
2013-03-05 02:47:00,32.3,23.3,29.72,SSW,208,1.0,0.0,69,0.00,,,0.00,WeatherTracker,2013-03-05 07:47:00,
2013-03-05 02:52:00,32.3,23.3,29.72,West,281,4.0,0.0,69,0.00,,,0.00,WeatherTracker,2013-03-05 07:52:00,
2013-03-05 02:57:00,32.3,23.3,29.72,NW,323,3.0,0.0,69,0.00,,,0.00,WeatherTracker,2013-03-05 07:57:00,
2013-03-05 03:02:00,32.3,23.3,29.72,West,270,3.0,0.0,69,0.00,,,0.00,WeatherTracker,2013-03-05 08:02:00,
2013-03-05 03:07:00,32.3,23.3,29.72,West,270,2.0,0.0,69,0.00,,,0.00,WeatherTracker,2013-03-05 08:07:00,
2013-03-05 03:12:00,32.3,23.3,29.73,WSW,255,0.0,0.0,69,0.00,,,0.00,WeatherTracker,2013-03-05 08:12:00,
2013-03-05 03:17:00,32.3,23.3,29.73,West,277,3.0,0.0,69,0.00,,,0.00,WeatherTracker,2013-03-05 08:17:00,
2013-03-05 03:22:00,32.2,23.2,29.73,WNW,296,1.0,0.0,69,0.00,,,0.00,WeatherTracker,2013-03-05 08:22:00,
2013-03-05 03:27:00,32.2,23.2,29.73,West,273,3.0,0.0,69,0.00,,,0.00,WeatherTracker,2013-03-05 08:27:00,
2013-03-05 03:32:00,32.1,23.1,29.73,West,279,0.0,0.0,69,0.00,,,0.00,WeatherTracker,2013-03-05 08:32:00,
2013-03-05 03:37:00,32.0,23.3,29.73,WNW,296,3.0,0.0,70,0.00,,,0.00,WeatherTracker,2013-03-05 08:37:00,
2013-03-05 03:42:00,31.9,23.2,29.74,West,277,1.0,0.0,70,0.00,,,0.00,WeatherTracker,2013-03-05 08:42:00,
2013-03-05 03:47:00,31.8,23.1,29.74,WNW,288,2.0,0.0,70,0.00,,,0.00,WeatherTracker,2013-03-05 08:47:00,
2013-03-05 03:52:00,31.7,23.1,29.74,West,279,4.0,0.0,70,0.00,,,0.00,WeatherTracker,2013-03-05 08:52:00,
2013-03-05 03:57:00,31.7,23.1,29.75,WNW,282,1.0,0.0,70,0.00,,,0.00,WeatherTracker,2013-03-05 08:57:00,
2013-03-05 04:02:00,31.5,23.2,29.75,SW,227,0.0,0.0,71,0.00,,,0.00,WeatherTracker,2013-03-05 09:02:00,
2013-03-05 04:07:00,31.4,23.1,29.75,West,259,0.0,0.0,71,0.00,,,0.00,WeatherTracker,2013-03-05 09:07:00,
2013-03-05 04:12:00,31.3,23.0,29.75,West,280,1.0,0.0,71,0.00,,,0.00,WeatherTracker,2013-03-05 09:12:00,
2013-03-05 04:17:00,31.2,22.9,29.76,West,263,3.0,0.0,71,0.00,,,0.00,WeatherTracker,2013-03-05 09:17:00,
2013-03-05 04:23:00,31.2,22.9,29.76,West,259,0.0,0.0,71,0.00,,,0.00,WeatherTracker,2013-03-05 09:23:00,
2013-03-05 04:28:00,31.2,22.9,29.76,WSW,247,1.0,0.0,71,0.00,,,0.00,WeatherTracker,2013-03-05 09:28:00,
2013-03-05 04:33:00,31.2,22.9,29.76,West,280,2.0,0.0,71,0.00,,,0.00,WeatherTracker,2013-03-05 09:33:00,
2013-03-05 04:38:00,31.4,23.1,29.76,WNW,282,1.0,0.0,71,0.00,,,0.00,WeatherTracker,2013-03-05 09:38:00,
2013-03-05 04:43:00,31.4,23.1,29.77,West,273,3.0,0.0,71,0.00,,,0.00,WeatherTracker,2013-03-05 09:43:00,
2013-03-05 04:48:00,31.5,23.2,29.77,West,279,2.0,0.0,71,0.00,,,0.00,WeatherTracker,2013-03-05 09:48:00,
2013-03-05 04:53:00,31.5,23.2,29.77,WSW,257,0.0,0.0,71,0.00,,,0.00,WeatherTracker,2013-03-05 09:53:00,
2013-03-05 04:58:00,31.6,23.3,29.77,West,273,0.0,0.0,71,0.00,,,0.00,WeatherTracker,2013-03-05 09:58:00,
2013-03-05 05:03:00,31.6,23.3,29.78,NW,306,1.0,0.0,71,0.00,,,0.00,WeatherTracker,2013-03-05 10:03:00,
2013-03-05 05:08:00,31.7,23.4,29.78,WSW,237,4.0,0.0,71,0.00,,,0.00,WeatherTracker,2013-03-05 10:08:00,
2013-03-05 05:13:00,31.7,23.4,29.78,NW,316,1.0,0.0,71,0.00,,,0.00,WeatherTracker,2013-03-05 10:13:00,
2013-03-05 05:18:00,31.7,23.4,29.78,WSW,246,4.0,0.0,71,0.00,,,0.00,WeatherTracker,2013-03-05 10:18:00,
2013-03-05 05:23:00,31.7,23.4,29.79,WSW,258,4.0,0.0,71,0.00,,,0.00,WeatherTracker,2013-03-05 10:23:00,
2013-03-05 05:28:00,31.8,23.5,29.79,West,263,0.0,0.0,71,0.00,,,0.00,WeatherTracker,2013-03-05 10:28:00,
2013-03-05 05:33:00,31.8,23.5,29.79,SSW,195,3.0,0.0,71,0.00,,,0.00,WeatherTracker,2013-03-05 10:33:00,
2013-03-05 05:38:00,31.8,23.5,29.79,SSW,213,1.0,0.0,71,0.00,,,0.00,WeatherTracker,2013-03-05 10:38:00,
2013-03-05 05:43:00,31.8,23.5,29.79,West,263,2.0,0.0,71,0.00,,,0.00,WeatherTracker,2013-03-05 10:43:00,
2013-03-05 05:48:00,31.9,23.6,29.80,West,269,0.0,0.0,71,0.00,,,0.00,WeatherTracker,2013-03-05 10:48:00,
2013-03-05 05:53:00,31.9,23.6,29.80,SW,223,1.0,0.0,71,0.00,,,0.00,WeatherTracker,2013-03-05 10:53:00,
2013-03-05 05:58:00,31.9,23.6,29.80,West,275,2.0,0.0,71,0.00,,,0.00,WeatherTracker,2013-03-05 10:58:00,
2013-03-05 06:03:00,32.0,23.7,29.80,West,263,0.0,0.0,71,0.01,,,0.01,WeatherTracker,2013-03-05 11:03:00,
2013-03-05 06:08:00,32.0,23.7,29.81,West,268,2.0,0.0,71,0.01,,,0.01,WeatherTracker,2013-03-05 11:08:00,
2013-03-05 06:14:00,32.0,23.7,29.80,West,279,2.0,0.0,71,0.01,,,0.01,WeatherTracker,2013-03-05 11:14:00,
2013-03-05 06:19:00,32.0,23.7,29.81,West,279,0.0,0.0,71,0.01,,,0.01,WeatherTracker,2013-03-05 11:19:00,
2013-03-05 06:24:00,32.1,23.8,29.81,West,271,0.0,0.0,71,0.01,,,0.01,WeatherTracker,2013-03-05 11:24:00,
2013-03-05 06:29:00,32.1,23.8,29.81,WSW,243,0.0,0.0,71,0.01,,,0.01,WeatherTracker,2013-03-05 11:29:00,
2013-03-05 06:34:00,32.1,23.8,29.81,WNW,290,0.0,0.0,71,0.01,,,0.01,WeatherTracker,2013-03-05 11:34:00,
2013-03-05 06:39:00,32.2,23.5,29.82,WSW,255,4.0,0.0,70,0.01,,,0.01,WeatherTracker,2013-03-05 11:39:00,
2013-03-05 06:44:00,32.2,23.9,29.82,West,279,0.0,0.0,71,0.01,,,0.01,WeatherTracker,2013-03-05 11:44:00,
2013-03-05 06:49:00,32.2,23.9,29.82,West,277,1.0,0.0,71,0.01,,,0.01,WeatherTracker,2013-03-05 11:49:00,
2013-03-05 06:54:00,32.3,23.6,29.82,WSW,255,0.0,0.0,70,0.01,,,0.01,WeatherTracker,2013-03-05 11:54:00,
2013-03-05 06:59:00,32.3,23.6,29.82,WNW,286,3.0,0.0,70,0.01,,,0.01,WeatherTracker,2013-03-05 11:59:00,
2013-03-05 07:04:00,32.4,24.1,29.83,SSW,194,0.0,0.0,71,0.00,,,0.01,WeatherTracker,2013-03-05 12:04:00,
2013-03-05 07:09:00,32.5,24.2,29.83,NW,306,3.0,0.0,71,0.00,,,0.01,WeatherTracker,2013-03-05 12:09:00,
2013-03-05 07:14:00,32.5,24.2,29.83,WNW,291,0.0,0.0,71,0.00,,,0.01,WeatherTracker,2013-03-05 12:14:00,
2013-03-05 07:19:00,32.5,23.8,29.83,West,270,1.0,0.0,70,0.00,,,0.01,WeatherTracker,2013-03-05 12:19:00,
2013-03-05 07:24:00,32.6,23.9,29.83,West,269,2.0,0.0,70,0.00,,,0.01,WeatherTracker,2013-03-05 12:24:00,
2013-03-05 07:29:00,32.7,24.0,29.84,NNW,331,0.0,0.0,70,0.00,,,0.01,WeatherTracker,2013-03-05 12:29:00,
2013-03-05 07:34:00,32.8,24.1,29.84,SSW,210,6.0,0.0,70,0.00,,,0.01,WeatherTracker,2013-03-05 12:34:00,
2013-03-05 07:39:00,32.9,24.2,29.84,West,275,0.0,0.0,70,0.00,,,0.01,WeatherTracker,2013-03-05 12:39:00,
2013-03-05 07:44:00,33.1,24.1,29.84,West,264,0.0,0.0,69,0.00,,,0.01,WeatherTracker,2013-03-05 12:44:00,
2013-03-05 07:49:00,33.2,24.2,29.84,West,265,1.0,0.0,69,0.00,,,0.01,WeatherTracker,2013-03-05 12:49:00,
2013-03-05 07:54:00,33.4,24.7,29.85,SE,130,1.0,0.0,70,0.00,,,0.01,WeatherTracker,2013-03-05 12:54:00,
2013-03-05 07:59:00,33.6,24.5,29.85,WNW,291,0.0,0.0,69,0.00,,,0.01,WeatherTracker,2013-03-05 12:59:00,
2013-03-05 08:04:00,33.8,24.7,29.85,NNW,331,0.0,0.0,69,0.00,,,0.01,WeatherTracker,2013-03-05 13:04:00,
2013-03-05 08:09:00,33.8,24.4,29.85,West,263,3.0,0.0,68,0.00,,,0.01,WeatherTracker,2013-03-05 13:09:00,
2013-03-05 08:14:00,34.0,24.6,29.85,NW,307,2.0,0.0,68,0.00,,,0.01,WeatherTracker,2013-03-05 13:14:00,
2013-03-05 08:19:00,34.2,24.8,29.85,WNW,299,1.0,0.0,68,0.00,,,0.01,WeatherTracker,2013-03-05 13:19:00,
2013-03-05 08:25:00,34.5,25.4,29.86,WNW,299,0.0,0.0,69,0.00,,,0.01,WeatherTracker,2013-03-05 13:25:00,
2013-03-05 08:30:00,34.7,24.9,29.86,West,272,0.0,0.0,67,0.00,,,0.01,WeatherTracker,2013-03-05 13:30:00,
2013-03-05 08:35:00,34.8,25.0,29.86,WNW,286,1.0,0.0,67,0.00,,,0.01,WeatherTracker,2013-03-05 13:35:00,
2013-03-05 08:40:00,34.9,25.1,29.86,West,274,2.0,0.0,67,0.00,,,0.01,WeatherTracker,2013-03-05 13:40:00,
2013-03-05 08:45:00,35.1,25.3,29.86,West,267,3.0,0.0,67,0.00,,,0.01,WeatherTracker,2013-03-05 13:45:00,
2013-03-05 08:50:00,35.4,25.5,29.86,WNW,289,0.0,0.0,67,0.00,,,0.01,WeatherTracker,2013-03-05 13:50:00,
2013-03-05 08:55:00,35.6,25.4,29.86,NW,318,3.0,0.0,66,0.00,,,0.01,WeatherTracker,2013-03-05 13:55:00,
2013-03-05 09:00:00,35.9,25.7,29.86,NW,319,0.0,0.0,66,0.00,,,0.01,WeatherTracker,2013-03-05 14:00:00,
2013-03-05 09:05:00,36.1,25.9,29.86,WNW,288,0.0,0.0,66,0.00,,,0.01,WeatherTracker,2013-03-05 14:05:00,
2013-03-05 09:10:00,36.3,26.0,29.86,WNW,296,0.0,0.0,66,0.00,,,0.01,WeatherTracker,2013-03-05 14:10:00,
2013-03-05 09:15:00,36.6,26.3,29.86,NW,305,0.0,0.0,66,0.00,,,0.01,WeatherTracker,2013-03-05 14:15:00,
2013-03-05 09:20:00,36.7,26.1,29.87,NW,323,3.0,0.0,65,0.00,,,0.01,WeatherTracker,2013-03-05 14:20:00,
2013-03-05 09:25:00,36.7,26.1,29.87,SW,220,1.0,0.0,65,0.00,,,0.01,WeatherTracker,2013-03-05 14:25:00,
2013-03-05 09:30:00,36.8,26.5,29.87,NW,319,2.0,0.0,66,0.00,,,0.01,WeatherTracker,2013-03-05 14:30:00,
2013-03-05 09:35:00,36.8,26.5,29.87,WNW,288,0.0,0.0,66,0.00,,,0.01,WeatherTracker,2013-03-05 14:35:00,
2013-03-05 09:40:00,37.0,26.7,29.87,North,355,0.0,0.0,66,0.00,,,0.01,WeatherTracker,2013-03-05 14:40:00,
2013-03-05 09:45:00,37.1,26.8,29.87,WNW,302,2.0,0.0,66,0.00,,,0.01,WeatherTracker,2013-03-05 14:45:00,
2013-03-05 09:50:00,37.2,26.9,29.87,WNW,298,0.0,0.0,66,0.00,,,0.01,WeatherTracker,2013-03-05 14:50:00,
2013-03-05 09:55:00,37.3,27.0,29.87,WSW,257,0.0,0.0,66,0.00,,,0.01,WeatherTracker,2013-03-05 14:55:00,
2013-03-05 10:00:00,37.5,27.2,29.87,NW,317,0.0,0.0,66,0.00,,,0.01,WeatherTracker,2013-03-05 15:00:00,
2013-03-05 10:05:00,37.7,27.0,29.87,SW,219,0.0,0.0,65,0.00,,,0.01,WeatherTracker,2013-03-05 15:05:00,
2013-03-05 10:10:00,37.7,27.4,29.87,NW,317,0.0,0.0,66,0.00,,,0.01,WeatherTracker,2013-03-05 15:10:00,
2013-03-05 10:15:00,37.9,27.6,29.87,West,271,0.0,0.0,66,0.00,,,0.01,WeatherTracker,2013-03-05 15:15:00,
2013-03-05 10:21:00,38.0,27.3,29.87,WNW,288,0.0,0.0,65,0.00,,,0.01,WeatherTracker,2013-03-05 15:21:00,
2013-03-05 10:26:00,38.3,27.6,29.87,WNW,294,0.0,0.0,65,0.00,,,0.01,WeatherTracker,2013-03-05 15:26:00,
2013-03-05 10:31:00,38.7,28.0,29.87,NNE,15,2.0,0.0,65,0.00,,,0.01,WeatherTracker,2013-03-05 15:31:00,
2013-03-05 10:36:00,39.1,28.0,29.87,NNW,327,0.0,0.0,64,0.00,,,0.01,WeatherTracker,2013-03-05 15:36:00,
2013-03-05 10:41:00,39.4,27.9,29.87,NW,322,1.0,0.0,63,0.00,,,0.01,WeatherTracker,2013-03-05 15:41:00,
2013-03-05 10:46:00,39.4,28.3,29.87,NNW,342,0.0,0.0,64,0.00,,,0.01,WeatherTracker,2013-03-05 15:46:00,
2013-03-05 10:51:00,39.5,28.3,29.88,WNW,303,0.0,0.0,64,0.00,,,0.01,WeatherTracker,2013-03-05 15:51:00,
2013-03-05 10:56:00,39.6,28.4,29.88,SW,217,2.0,0.0,64,0.00,,,0.01,WeatherTracker,2013-03-05 15:56:00,
2013-03-05 11:01:00,39.7,28.5,29.88,West,273,2.0,0.0,64,0.00,,,0.01,WeatherTracker,2013-03-05 16:01:00,
2013-03-05 11:06:00,39.8,28.6,29.88,SE,146,0.0,0.0,64,0.00,,,0.01,WeatherTracker,2013-03-05 16:06:00,
2013-03-05 11:11:00,40.1,28.5,29.88,NW,312,0.0,0.0,63,0.00,,,0.01,WeatherTracker,2013-03-05 16:11:00,
2013-03-05 11:16:00,40.2,28.6,29.88,WNW,296,0.0,0.0,63,0.00,,,0.01,WeatherTracker,2013-03-05 16:16:00,
2013-03-05 11:21:00,40.6,28.6,29.88,SSE,161,0.0,0.0,62,0.00,,,0.01,WeatherTracker,2013-03-05 16:21:00,
2013-03-05 11:26:00,40.7,28.7,29.88,West,277,2.0,0.0,62,0.00,,,0.01,WeatherTracker,2013-03-05 16:26:00,
2013-03-05 11:31:00,40.6,29.0,29.88,WSW,244,2.0,0.0,63,0.00,,,0.01,WeatherTracker,2013-03-05 16:31:00,
2013-03-05 11:36:00,40.8,28.8,29.88,SSW,199,0.0,0.0,62,0.00,,,0.01,WeatherTracker,2013-03-05 16:36:00,
2013-03-05 11:41:00,40.8,28.8,29.88,WSW,250,3.0,0.0,62,0.00,,,0.01,WeatherTracker,2013-03-05 16:41:00,
2013-03-05 11:46:00,40.8,28.8,29.89,WNW,303,0.0,0.0,62,0.00,,,0.01,WeatherTracker,2013-03-05 16:46:00,
2013-03-05 11:51:00,41.0,29.0,29.89,WNW,294,0.0,0.0,62,0.00,,,0.01,WeatherTracker,2013-03-05 16:51:00,
2013-03-05 11:56:00,41.1,29.1,29.88,West,262,0.0,0.0,62,0.00,,,0.01,WeatherTracker,2013-03-05 16:56:00,
2013-03-05 12:01:00,41.3,29.3,29.89,ENE,78,4.0,0.0,62,0.00,,,0.01,WeatherTracker,2013-03-05 17:01:00,
2013-03-05 12:06:00,41.7,29.3,29.88,ENE,72,2.0,0.0,61,0.00,,,0.01,WeatherTracker,2013-03-05 17:06:00,
2013-03-05 12:11:00,42.0,29.1,29.88,WNW,295,1.0,0.0,60,0.00,,,0.01,WeatherTracker,2013-03-05 17:11:00,
2013-03-05 12:17:00,42.5,29.6,29.88,NNW,331,0.0,0.0,60,0.00,,,0.01,WeatherTracker,2013-03-05 17:17:00,
2013-03-05 12:22:00,43.3,29.9,29.89,ENE,69,0.0,0.0,59,0.00,,,0.01,WeatherTracker,2013-03-05 17:22:00,
2013-03-05 12:27:00,43.3,29.1,29.89,North,11,1.0,0.0,57,0.00,,,0.01,WeatherTracker,2013-03-05 17:27:00,
2013-03-05 12:32:00,43.2,29.9,29.88,NW,311,0.0,0.0,59,0.00,,,0.01,WeatherTracker,2013-03-05 17:32:00,
2013-03-05 12:37:00,43.1,29.8,29.88,West,259,1.0,0.0,59,0.00,,,0.01,WeatherTracker,2013-03-05 17:37:00,
2013-03-05 12:42:00,43.1,29.3,29.89,NNE,19,3.0,0.0,58,0.00,,,0.01,WeatherTracker,2013-03-05 17:42:00,
2013-03-05 12:47:00,43.1,29.8,29.88,NNW,343,0.0,0.0,59,0.00,,,0.01,WeatherTracker,2013-03-05 17:47:00,
2013-03-05 12:52:00,42.9,29.2,29.89,NW,313,0.0,0.0,58,0.00,,,0.01,WeatherTracker,2013-03-05 17:52:00,
2013-03-05 12:57:00,42.9,30.0,29.89,NW,313,1.0,0.0,60,0.00,,,0.01,WeatherTracker,2013-03-05 17:57:00,
2013-03-05 13:02:00,43.1,29.8,29.89,NNW,337,0.0,0.0,59,0.00,,,0.01,WeatherTracker,2013-03-05 18:02:00,
2013-03-05 13:07:00,43.2,29.9,29.89,NE,54,0.0,0.0,59,0.00,,,0.01,WeatherTracker,2013-03-05 18:07:00,
2013-03-05 13:12:00,43.2,29.9,29.88,North,360,2.0,0.0,59,0.00,,,0.01,WeatherTracker,2013-03-05 18:12:00,
2013-03-05 13:17:00,43.1,29.8,29.89,SE,128,0.0,0.0,59,0.00,,,0.01,WeatherTracker,2013-03-05 18:17:00,
2013-03-05 13:22:00,42.9,29.6,29.89,NNE,27,0.0,0.0,59,0.00,,,0.01,WeatherTracker,2013-03-05 18:22:00,
2013-03-05 13:27:00,42.8,29.9,29.89,NNE,32,0.0,0.0,60,0.00,,,0.01,WeatherTracker,2013-03-05 18:27:00,
2013-03-05 13:32:00,42.8,29.9,29.89,NE,46,0.0,0.0,60,0.00,,,0.01,WeatherTracker,2013-03-05 18:32:00,
2013-03-05 13:37:00,42.5,30.0,29.89,NE,51,1.0,0.0,61,0.00,,,0.01,WeatherTracker,2013-03-05 18:37:00,
2013-03-05 13:42:00,42.4,30.3,29.89,NE,47,2.0,0.0,62,0.00,,,0.01,WeatherTracker,2013-03-05 18:42:00,
2013-03-05 13:47:00,42.3,30.2,29.89,NE,38,0.0,0.0,62,0.00,,,0.01,WeatherTracker,2013-03-05 18:47:00,
2013-03-05 13:52:00,42.4,30.7,29.89,NNE,20,5.0,0.0,63,0.00,,,0.01,WeatherTracker,2013-03-05 18:52:00,
2013-03-05 13:57:00,42.4,31.5,29.90,NE,34,5.0,0.0,65,0.00,,,0.01,WeatherTracker,2013-03-05 18:57:00,
2013-03-05 14:02:00,42.1,31.2,29.90,NNE,32,1.0,0.0,65,0.00,,,0.01,WeatherTracker,2013-03-05 19:02:00,
2013-03-05 14:07:00,41.8,31.7,29.90,NE,42,6.0,0.0,67,0.00,,,0.01,WeatherTracker,2013-03-05 19:07:00,
2013-03-05 14:13:00,41.3,31.5,29.90,NNE,23,6.0,0.0,68,0.00,,,0.01,WeatherTracker,2013-03-05 19:13:00,
2013-03-05 14:18:00,41.3,31.9,29.90,NNE,24,0.0,0.0,69,0.00,,,0.01,WeatherTracker,2013-03-05 19:18:00,
2013-03-05 14:23:00,41.4,32.0,29.91,NE,34,1.0,0.0,69,0.00,,,0.01,WeatherTracker,2013-03-05 19:23:00,
2013-03-05 14:28:00,41.6,32.2,29.91,NE,36,3.0,0.0,69,0.00,,,0.01,WeatherTracker,2013-03-05 19:28:00,
2013-03-05 14:33:00,41.8,32.4,29.91,East,93,5.0,0.0,69,0.00,,,0.01,WeatherTracker,2013-03-05 19:33:00,
2013-03-05 14:38:00,41.8,32.7,29.91,East,96,3.0,0.0,70,0.00,,,0.01,WeatherTracker,2013-03-05 19:38:00,
2013-03-05 14:43:00,41.4,33.1,29.91,ESE,123,2.0,0.0,72,0.00,,,0.01,WeatherTracker,2013-03-05 19:43:00,
2013-03-05 14:48:00,41.1,33.1,29.91,East,92,2.0,0.0,73,0.00,,,0.01,WeatherTracker,2013-03-05 19:48:00,
2013-03-05 14:53:00,41.1,33.5,29.91,East,98,1.0,0.0,74,0.00,,,0.01,WeatherTracker,2013-03-05 19:53:00,
2013-03-05 14:58:00,41.3,33.6,29.91,East,99,2.0,0.0,74,0.00,,,0.01,WeatherTracker,2013-03-05 19:58:00,
2013-03-05 15:03:00,41.1,33.5,29.91,ESE,105,1.0,0.0,74,0.00,,,0.01,WeatherTracker,2013-03-05 20:03:00,
2013-03-05 15:08:00,41.4,33.7,29.91,ESE,114,0.0,0.0,74,0.00,,,0.01,WeatherTracker,2013-03-05 20:08:00,
2013-03-05 15:13:00,41.9,34.2,29.92,North,5,0.0,0.0,74,0.00,,,0.01,WeatherTracker,2013-03-05 20:13:00,
2013-03-05 15:18:00,42.2,34.2,29.92,NNE,32,0.0,0.0,73,0.00,,,0.01,WeatherTracker,2013-03-05 20:18:00,
2013-03-05 15:23:00,42.3,34.3,29.92,NNE,21,0.0,0.0,73,0.00,,,0.01,WeatherTracker,2013-03-05 20:23:00,
2013-03-05 15:28:00,42.6,34.2,29.92,NNE,15,2.0,0.0,72,0.00,,,0.01,WeatherTracker,2013-03-05 20:28:00,
2013-03-05 15:33:00,42.5,34.5,29.92,ENE,74,1.0,0.0,73,0.00,,,0.01,WeatherTracker,2013-03-05 20:33:00,
2013-03-05 15:38:00,42.3,34.3,29.93,North,10,1.0,0.0,73,0.00,,,0.01,WeatherTracker,2013-03-05 20:38:00,
2013-03-05 15:43:00,42.0,34.3,29.93,NE,38,2.0,0.0,74,0.00,,,0.01,WeatherTracker,2013-03-05 20:43:00,
2013-03-05 15:48:00,41.6,34.3,29.93,ENE,69,0.0,0.0,75,0.00,,,0.01,WeatherTracker,2013-03-05 20:48:00,
2013-03-05 15:53:00,41.5,34.2,29.93,ENE,63,0.0,0.0,75,0.00,,,0.01,WeatherTracker,2013-03-05 20:53:00,
2013-03-05 15:58:00,41.5,34.2,29.93,NNE,26,2.0,0.0,75,0.00,,,0.01,WeatherTracker,2013-03-05 20:58:00,
2013-03-05 16:03:00,41.5,34.2,29.94,East,94,3.0,0.0,75,0.00,,,0.01,WeatherTracker,2013-03-05 21:03:00,
2013-03-05 16:08:00,41.1,34.1,29.94,SE,125,0.0,0.0,76,0.00,,,0.01,WeatherTracker,2013-03-05 21:08:00,
2013-03-05 16:13:00,40.9,34.3,29.94,ENE,69,0.0,0.0,77,0.00,,,0.01,WeatherTracker,2013-03-05 21:13:00,
2013-03-05 16:19:00,40.7,34.1,29.94,East,96,1.0,0.0,77,0.00,,,0.01,WeatherTracker,2013-03-05 21:19:00,
2013-03-05 16:24:00,40.6,34.3,29.95,ENE,66,0.0,0.0,78,0.00,,,0.01,WeatherTracker,2013-03-05 21:24:00,
2013-03-05 16:29:00,40.6,34.3,29.95,NNE,33,0.0,0.0,78,0.00,,,0.01,WeatherTracker,2013-03-05 21:29:00,
2013-03-05 16:34:00,40.5,34.2,29.95,NNE,23,0.0,0.0,78,0.00,,,0.01,WeatherTracker,2013-03-05 21:34:00,
2013-03-05 16:39:00,40.4,34.1,29.95,NE,35,3.0,0.0,78,0.00,,,0.01,WeatherTracker,2013-03-05 21:39:00,
2013-03-05 16:44:00,40.2,33.9,29.95,NNE,16,1.0,0.0,78,0.00,,,0.01,WeatherTracker,2013-03-05 21:44:00,
2013-03-05 16:49:00,40.1,33.8,29.95,NNE,21,0.0,0.0,78,0.00,,,0.01,WeatherTracker,2013-03-05 21:49:00,
2013-03-05 16:54:00,40.0,34.0,29.95,NNE,24,0.0,0.0,79,0.00,,,0.01,WeatherTracker,2013-03-05 21:54:00,
2013-03-05 16:59:00,39.9,33.9,29.95,NE,38,1.0,0.0,79,0.00,,,0.01,WeatherTracker,2013-03-05 21:59:00,
2013-03-05 17:04:00,39.7,34.0,29.95,NNE,28,2.0,0.0,80,0.00,,,0.01,WeatherTracker,2013-03-05 22:04:00,
2013-03-05 17:09:00,39.7,34.0,29.95,North,11,0.0,0.0,80,0.00,,,0.01,WeatherTracker,2013-03-05 22:09:00,
2013-03-05 17:14:00,39.6,33.9,29.96,NE,46,1.0,0.0,80,0.00,,,0.01,WeatherTracker,2013-03-05 22:14:00,
2013-03-05 17:19:00,39.5,34.2,29.96,NE,35,0.0,0.0,81,0.00,,,0.01,WeatherTracker,2013-03-05 22:19:00,
2013-03-05 17:24:00,39.5,34.2,29.96,NE,41,0.0,0.0,81,0.00,,,0.01,WeatherTracker,2013-03-05 22:24:00,
2013-03-05 19:19:00,36.4,32.9,29.98,NNE,24,0.0,0.0,87,0.00,,,0.01,WeatherTracker,2013-03-06 00:19:00,
2013-03-05 19:24:00,36.2,32.7,29.98,NNE,24,0.0,0.0,87,0.00,,,0.01,WeatherTracker,2013-03-06 00:24:00,
2013-03-05 19:29:00,36.1,32.6,29.99,NNE,24,0.0,0.0,87,0.00,,,0.01,WeatherTracker,2013-03-06 00:29:00,
2013-03-05 19:34:00,35.9,32.4,29.99,NNE,24,0.0,0.0,87,0.00,,,0.01,WeatherTracker,2013-03-06 00:34:00,
2013-03-05 19:39:00,35.8,32.6,29.99,NNE,24,0.0,0.0,88,0.00,,,0.01,WeatherTracker,2013-03-06 00:39:00,
2013-03-05 19:44:00,35.6,32.4,29.99,NNE,24,0.0,0.0,88,0.00,,,0.01,WeatherTracker,2013-03-06 00:44:00,
2013-03-05 19:49:00,35.4,32.2,29.99,NNE,24,0.0,0.0,88,0.00,,,0.01,WeatherTracker,2013-03-06 00:49:00,
2013-03-05 19:54:00,35.2,32.0,29.99,NNE,24,0.0,0.0,88,0.00,,,0.01,WeatherTracker,2013-03-06 00:54:00,
2013-03-05 19:59:00,34.9,31.7,29.99,NNE,24,0.0,0.0,88,0.00,,,0.01,WeatherTracker,2013-03-06 00:59:00,
2013-03-05 20:04:00,34.6,31.4,29.98,NNE,24,0.0,0.0,88,0.00,,,0.01,WeatherTracker,2013-03-06 01:04:00,
2013-03-05 20:09:00,34.3,31.4,29.98,NNE,24,0.0,0.0,89,0.00,,,0.01,WeatherTracker,2013-03-06 01:09:00,
2013-03-05 20:14:00,34.1,31.2,29.98,NNE,24,0.0,0.0,89,0.00,,,0.01,WeatherTracker,2013-03-06 01:14:00,
2013-03-05 20:19:00,33.8,30.9,29.98,NNE,24,0.0,0.0,89,0.00,,,0.01,WeatherTracker,2013-03-06 01:19:00,
2013-03-05 20:24:00,33.6,30.7,29.98,NNE,24,0.0,0.0,89,0.00,,,0.01,WeatherTracker,2013-03-06 01:24:00,
2013-03-05 20:29:00,33.3,30.7,29.98,NNE,24,0.0,0.0,90,0.00,,,0.01,WeatherTracker,2013-03-06 01:29:00,
2013-03-05 20:34:00,33.1,30.5,29.98,NNE,24,0.0,0.0,90,0.00,,,0.01,WeatherTracker,2013-03-06 01:34:00,
2013-03-05 20:39:00,32.9,30.3,29.98,NNE,24,0.0,0.0,90,0.00,,,0.01,WeatherTracker,2013-03-06 01:39:00,
2013-03-05 20:44:00,32.7,30.4,29.98,NNE,24,0.0,0.0,91,0.00,,,0.01,WeatherTracker,2013-03-06 01:44:00,
2013-03-05 20:50:00,32.6,30.3,29.98,NNE,24,0.0,0.0,91,0.00,,,0.01,WeatherTracker,2013-03-06 01:50:00,
2013-03-05 20:55:00,32.6,30.5,29.98,NNE,24,0.0,0.0,92,0.00,,,0.01,WeatherTracker,2013-03-06 01:55:00,
2013-03-05 21:00:00,32.7,30.6,29.98,NNE,24,0.0,0.0,92,0.00,,,0.01,WeatherTracker,2013-03-06 02:00:00,
2013-03-05 21:05:00,32.8,30.7,29.98,NNE,24,0.0,0.0,92,0.00,,,0.01,WeatherTracker,2013-03-06 02:05:00,
2013-03-05 21:10:00,32.9,30.8,29.98,NNE,24,0.0,0.0,92,0.00,,,0.01,WeatherTracker,2013-03-06 02:10:00,
2013-03-05 21:15:00,33.0,30.9,29.98,NNE,24,0.0,0.0,92,0.00,,,0.01,WeatherTracker,2013-03-06 02:15:00,
2013-03-05 21:20:00,33.1,31.0,29.98,NNE,24,0.0,0.0,92,0.00,,,0.01,WeatherTracker,2013-03-06 02:20:00,
2013-03-05 21:25:00,33.3,31.2,29.98,NW,320,0.0,0.0,92,0.00,,,0.01,WeatherTracker,2013-03-06 02:25:00,
2013-03-05 21:30:00,33.4,31.3,29.98,NW,320,0.0,0.0,92,0.00,,,0.01,WeatherTracker,2013-03-06 02:30:00,
2013-03-05 21:35:00,33.5,31.4,29.98,NW,320,0.0,0.0,92,0.00,,,0.01,WeatherTracker,2013-03-06 02:35:00,
2013-03-05 21:40:00,33.6,31.5,29.98,NW,320,0.0,0.0,92,0.00,,,0.01,WeatherTracker,2013-03-06 02:40:00,
2013-03-05 21:45:00,33.7,31.6,29.98,NW,320,0.0,0.0,92,0.00,,,0.01,WeatherTracker,2013-03-06 02:45:00,
2013-03-05 21:50:00,33.8,31.7,29.98,NW,320,1.0,0.0,92,0.00,,,0.01,WeatherTracker,2013-03-06 02:50:00,
2013-03-05 21:55:00,33.9,31.6,29.98,NW,320,0.0,0.0,91,0.00,,,0.01,WeatherTracker,2013-03-06 02:55:00,
2013-03-05 22:00:00,34.0,31.7,29.98,NW,320,0.0,0.0,91,0.00,,,0.01,WeatherTracker,2013-03-06 03:00:00,
2013-03-05 22:05:00,34.1,31.8,29.98,NW,320,0.0,0.0,91,0.00,,,0.01,WeatherTracker,2013-03-06 03:05:00,
2013-03-05 22:10:00,34.1,31.8,29.98,NW,320,0.0,0.0,91,0.00,,,0.01,WeatherTracker,2013-03-06 03:10:00,
2013-03-05 22:15:00,34.1,31.8,29.98,NW,320,0.0,0.0,91,0.00,,,0.01,WeatherTracker,2013-03-06 03:15:00,
2013-03-05 22:20:00,34.2,31.9,29.98,NW,320,0.0,0.0,91,0.00,,,0.01,WeatherTracker,2013-03-06 03:20:00,
2013-03-05 22:25:00,34.1,31.8,29.98,NW,320,0.0,0.0,91,0.00,,,0.01,WeatherTracker,2013-03-06 03:25:00,
2013-03-05 22:30:00,34.1,31.8,29.98,NW,320,0.0,0.0,91,0.00,,,0.01,WeatherTracker,2013-03-06 03:30:00,
2013-03-05 22:35:00,34.1,31.8,29.99,NW,320,0.0,0.0,91,0.00,,,0.01,WeatherTracker,2013-03-06 03:35:00,
2013-03-05 22:40:00,34.2,31.9,29.99,NW,320,0.0,0.0,91,0.00,,,0.01,WeatherTracker,2013-03-06 03:40:00,
2013-03-05 22:45:00,34.2,31.9,29.99,NW,320,0.0,0.0,91,0.00,,,0.01,WeatherTracker,2013-03-06 03:45:00,
2013-03-05 22:50:00,34.2,31.9,30.00,NW,320,0.0,0.0,91,0.00,,,0.01,WeatherTracker,2013-03-06 03:50:00,
2013-03-05 22:56:00,34.2,31.9,30.00,NW,320,0.0,0.0,91,0.00,,,0.01,WeatherTracker,2013-03-06 03:56:00,
2013-03-05 23:01:00,34.2,31.9,30.00,NW,320,0.0,0.0,91,0.00,,,0.01,WeatherTracker,2013-03-06 04:01:00,
2013-03-05 23:06:00,34.2,31.9,30.00,NW,320,0.0,0.0,91,0.00,,,0.01,WeatherTracker,2013-03-06 04:06:00,
2013-03-05 23:11:00,34.3,32.0,30.00,NW,320,0.0,0.0,91,0.00,,,0.01,WeatherTracker,2013-03-06 04:11:00,
2013-03-05 23:16:00,34.3,32.0,30.00,NW,320,0.0,0.0,91,0.00,,,0.01,WeatherTracker,2013-03-06 04:16:00,
2013-03-05 23:21:00,34.4,32.1,30.00,NW,320,0.0,0.0,91,0.00,,,0.01,WeatherTracker,2013-03-06 04:21:00,
2013-03-05 23:26:00,34.4,32.1,30.00,NW,320,0.0,0.0,91,0.00,,,0.01,WeatherTracker,2013-03-06 04:26:00,
2013-03-05 23:31:00,34.5,32.1,30.00,NW,320,0.0,0.0,91,0.00,,,0.01,WeatherTracker,2013-03-06 04:31:00,
2013-03-05 23:36:00,34.7,32.3,30.00,NW,320,0.0,0.0,91,0.00,,,0.01,WeatherTracker,2013-03-06 04:36:00,
2013-03-05 23:41:00,34.7,32.3,30.00,NW,320,0.0,0.0,91,0.00,,,0.01,WeatherTracker,2013-03-06 04:41:00,
2013-03-05 23:46:00,34.7,32.3,29.99,NW,320,0.0,0.0,91,0.00,,,0.01,WeatherTracker,2013-03-06 04:46:00,
2013-03-05 23:51:00,34.7,32.3,29.99,NW,320,0.0,0.0,91,0.00,,,0.01,WeatherTracker,2013-03-06 04:51:00,
2013-03-05 23:56:00,34.7,32.3,30.00,NW,320,0.0,0.0,91,0.00,,,0.01,WeatherTracker,2013-03-06 04:56:00,